Time,TemperatureF,DewpointF,PressureIn,WindDirection,WindDirectionDegrees,WindSpeedMPH,WindSpeedGustMPH,Humidity,HourlyPrecipIn,Conditions,Clouds,dailyrainin,SoftwareType,DateUTC
2013-01-22 00:00:00,26.6,23.5,29.83,North,355,5.0,5.0,88,0.00,,---,0.00,VWS V13.01,2013-01-22 05:00:00,
2013-01-22 00:01:00,26.6,23.5,29.83,NW,308,4.0,6.0,88,0.00,,---,0.00,VWS V13.01,2013-01-22 05:01:00,
2013-01-22 00:06:00,26.5,23.4,29.83,NNE,32,5.0,5.0,88,0.00,,---,0.00,VWS V13.01,2013-01-22 05:06:00,
2013-01-22 00:11:00,26.4,23.1,29.84,West,281,3.0,5.0,87,0.00,,---,0.00,VWS V13.01,2013-01-22 05:11:00,
2013-01-22 00:16:00,26.3,22.4,29.84,NW,319,2.0,7.0,85,0.00,,---,0.00,VWS V13.01,2013-01-22 05:16:00,
2013-01-22 00:21:00,26.3,21.6,29.84,WNW,285,3.0,5.0,82,0.00,,---,0.00,VWS V13.01,2013-01-22 05:21:00,
2013-01-22 00:26:00,26.2,21.2,29.85,NNW,329,4.0,4.0,81,0.00,,---,0.00,VWS V13.01,2013-01-22 05:26:00,
2013-01-22 00:31:00,26.1,21.1,29.84,WNW,303,5.0,5.0,81,0.00,,---,0.00,VWS V13.01,2013-01-22 05:31:00,
2013-01-22 00:36:00,26.0,21.0,29.84,WNW,285,5.0,7.0,81,0.00,,---,0.00,VWS V13.01,2013-01-22 05:36:00,
2013-01-22 00:41:00,25.9,20.9,29.84,NNW,334,6.0,7.0,81,0.00,,---,0.00,VWS V13.01,2013-01-22 05:41:00,
2013-01-22 00:46:00,25.7,20.7,29.84,NW,311,4.0,6.0,81,0.00,,---,0.00,VWS V13.01,2013-01-22 05:46:00,
2013-01-22 00:51:00,25.5,20.5,29.84,NNW,328,8.0,8.0,81,0.00,,---,0.00,VWS V13.01,2013-01-22 05:51:00,
2013-01-22 00:56:00,25.4,20.1,29.84,WNW,302,5.0,7.0,80,0.00,,---,0.00,VWS V13.01,2013-01-22 05:56:00,
2013-01-22 01:01:00,25.3,19.7,29.84,NW,307,0.0,2.0,79,0.00,,---,0.00,VWS V13.01,2013-01-22 06:01:00,
2013-01-22 01:06:00,25.3,19.7,29.85,NNW,347,4.0,6.0,79,0.00,,---,0.00,VWS V13.01,2013-01-22 06:06:00,
2013-01-22 01:11:00,25.2,19.6,29.84,NW,311,1.0,2.0,79,0.00,,---,0.00,VWS V13.01,2013-01-22 06:11:00,
2013-01-22 01:16:00,25.0,19.1,29.85,NNW,346,4.0,6.0,78,0.00,,---,0.00,VWS V13.01,2013-01-22 06:16:00,
2013-01-22 01:21:00,24.9,19.0,29.85,WNW,294,0.0,3.0,78,0.00,,---,0.00,VWS V13.01,2013-01-22 06:21:00,
2013-01-22 01:26:00,24.7,18.8,29.85,NW,319,0.0,2.0,78,0.00,,---,0.00,VWS V13.01,2013-01-22 06:26:00,
2013-01-22 01:31:00,24.6,18.7,29.85,NNW,328,1.0,2.0,78,0.00,,---,0.00,VWS V13.01,2013-01-22 06:31:00,
2013-01-22 01:36:00,24.4,18.8,29.85,NW,304,0.0,0.0,79,0.00,,---,0.00,VWS V13.01,2013-01-22 06:36:00,
2013-01-22 01:41:00,24.2,18.6,29.85,NW,304,2.0,4.0,79,0.00,,---,0.00,VWS V13.01,2013-01-22 06:41:00,
2013-01-22 01:46:00,23.9,18.6,29.85,WNW,291,1.0,4.0,80,0.00,,---,0.00,VWS V13.01,2013-01-22 06:46:00,
2013-01-22 01:51:00,23.7,18.1,29.85,NW,324,1.0,4.0,79,0.00,,---,0.00,VWS V13.01,2013-01-22 06:51:00,
2013-01-22 01:56:00,23.5,18.0,29.85,WNW,296,4.0,4.0,79,0.00,,---,0.00,VWS V13.01,2013-01-22 06:56:00,
2013-01-22 02:01:00,23.6,17.5,29.86,NW,308,4.0,5.0,77,0.00,,---,0.00,VWS V13.01,2013-01-22 07:01:00,
2013-01-22 02:06:00,23.7,17.3,29.86,WNW,296,6.0,11.0,76,0.00,,---,0.00,VWS V13.01,2013-01-22 07:06:00,
2013-01-22 02:11:00,23.8,17.0,29.86,NNW,337,3.0,11.0,75,0.00,,---,0.00,VWS V13.01,2013-01-22 07:11:00,
2013-01-22 02:16:00,23.8,16.7,29.86,WNW,300,4.0,4.0,74,0.00,,---,0.00,VWS V13.01,2013-01-22 07:16:00,
2013-01-22 02:21:00,23.8,16.4,29.86,NW,319,5.0,7.0,73,0.00,,---,0.00,VWS V13.01,2013-01-22 07:21:00,
2013-01-22 02:26:00,23.8,16.4,29.86,NW,304,2.0,5.0,73,0.00,,---,0.00,VWS V13.01,2013-01-22 07:26:00,
2013-01-22 02:31:00,23.6,15.9,29.86,NNW,342,10.0,10.0,72,0.00,,---,0.00,VWS V13.01,2013-01-22 07:31:00,
2013-01-22 02:36:00,23.6,15.9,29.86,NW,304,4.0,9.0,72,0.00,,---,0.00,VWS V13.01,2013-01-22 07:36:00,
2013-01-22 02:41:00,23.5,15.8,29.87,North,11,4.0,14.0,72,0.00,,---,0.00,VWS V13.01,2013-01-22 07:41:00,
2013-01-22 02:46:00,23.4,15.7,29.87,NNW,328,4.0,6.0,72,0.00,,---,0.00,VWS V13.01,2013-01-22 07:46:00,
2013-01-22 02:51:00,23.3,15.6,29.88,WNW,291,4.0,9.0,72,0.00,,---,0.00,VWS V13.01,2013-01-22 07:51:00,
2013-01-22 02:56:00,23.1,15.8,29.88,WNW,292,4.0,6.0,73,0.00,,---,0.00,VWS V13.01,2013-01-22 07:56:00,
2013-01-22 03:01:00,22.9,15.6,29.88,WNW,292,3.0,7.0,73,0.00,,---,0.00,VWS V13.01,2013-01-22 08:01:00,
2013-01-22 03:06:00,22.7,15.4,29.88,WNW,296,2.0,4.0,73,0.00,,---,0.00,VWS V13.01,2013-01-22 08:06:00,
2013-01-22 03:11:00,22.5,15.5,29.88,NW,317,0.0,3.0,74,0.00,,---,0.00,VWS V13.01,2013-01-22 08:11:00,
2013-01-22 03:16:00,22.4,15.1,29.88,WNW,297,3.0,9.0,73,0.00,,---,0.00,VWS V13.01,2013-01-22 08:16:00,
2013-01-22 03:21:00,22.4,15.1,29.89,NW,311,0.0,7.0,73,0.00,,---,0.00,VWS V13.01,2013-01-22 08:21:00,
2013-01-22 03:26:00,22.3,14.7,29.89,NW,319,7.0,9.0,72,0.00,,---,0.00,VWS V13.01,2013-01-22 08:26:00,
2013-01-22 03:31:00,22.4,14.1,29.89,NW,317,1.0,8.0,70,0.00,,---,0.00,VWS V13.01,2013-01-22 08:31:00,
2013-01-22 03:36:00,22.4,13.4,29.89,WNW,288,4.0,6.0,68,0.00,,---,0.00,VWS V13.01,2013-01-22 08:36:00,
2013-01-22 03:41:00,22.4,13.4,29.89,NNW,331,1.0,7.0,68,0.00,,---,0.00,VWS V13.01,2013-01-22 08:41:00,
2013-01-22 03:46:00,22.2,12.9,29.89,WNW,300,4.0,6.0,67,0.00,,---,0.00,VWS V13.01,2013-01-22 08:46:00,
2013-01-22 03:51:00,22.2,12.9,29.90,WNW,284,10.0,11.0,67,0.00,,---,0.00,VWS V13.01,2013-01-22 08:51:00,
2013-01-22 03:56:00,22.0,12.4,29.90,NW,323,7.0,10.0,66,0.00,,---,0.00,VWS V13.01,2013-01-22 08:56:00,
2013-01-22 04:01:00,21.8,12.5,29.90,West,279,3.0,4.0,67,0.00,,---,0.00,VWS V13.01,2013-01-22 09:01:00,
2013-01-22 04:06:00,21.7,12.4,29.90,NNW,332,5.0,7.0,67,0.00,,---,0.00,VWS V13.01,2013-01-22 09:06:00,
2013-01-22 04:11:00,21.5,12.3,29.90,WNW,294,3.0,5.0,67,0.00,,---,0.00,VWS V13.01,2013-01-22 09:11:00,
2013-01-22 04:16:00,21.5,11.6,29.91,NNW,342,7.0,12.0,65,0.00,,---,0.00,VWS V13.01,2013-01-22 09:16:00,
2013-01-22 04:21:00,21.4,11.5,29.91,NW,325,7.0,11.0,65,0.00,,---,0.00,VWS V13.01,2013-01-22 09:21:00,
2013-01-22 04:26:00,21.3,11.4,29.92,NW,305,2.0,10.0,65,0.00,,---,0.00,VWS V13.01,2013-01-22 09:26:00,
2013-01-22 04:31:00,21.3,11.4,29.92,NNW,338,5.0,11.0,65,0.00,,---,0.00,VWS V13.01,2013-01-22 09:31:00,
2013-01-22 04:36:00,21.3,11.4,29.92,NW,304,1.0,5.0,65,0.00,,---,0.00,VWS V13.01,2013-01-22 09:36:00,
2013-01-22 04:41:00,21.2,11.3,29.92,WNW,302,1.0,3.0,65,0.00,,---,0.00,VWS V13.01,2013-01-22 09:41:00,
2013-01-22 04:46:00,21.0,11.1,29.93,West,281,1.0,4.0,65,0.00,,---,0.00,VWS V13.01,2013-01-22 09:46:00,
2013-01-22 04:51:00,20.8,10.9,29.93,WNW,292,2.0,7.0,65,0.00,,---,0.00,VWS V13.01,2013-01-22 09:51:00,
2013-01-22 04:56:00,20.7,10.5,29.93,WNW,297,4.0,5.0,64,0.00,,---,0.00,VWS V13.01,2013-01-22 09:56:00,
2013-01-22 05:01:00,20.6,10.4,29.93,WNW,294,10.0,15.0,64,0.00,,---,0.00,VWS V13.01,2013-01-22 10:01:00,
2013-01-22 05:06:00,20.4,9.8,29.94,NW,319,9.0,9.0,63,0.00,,---,0.00,VWS V13.01,2013-01-22 10:06:00,
2013-01-22 05:11:00,20.3,9.7,29.94,WNW,292,3.0,11.0,63,0.00,,---,0.00,VWS V13.01,2013-01-22 10:11:00,
2013-01-22 05:16:00,20.2,9.6,29.94,NW,311,6.0,11.0,63,0.00,,---,0.00,VWS V13.01,2013-01-22 10:16:00,
2013-01-22 05:21:00,20.2,9.6,29.94,West,275,11.0,15.0,63,0.00,,---,0.00,VWS V13.01,2013-01-22 10:21:00,
2013-01-22 05:26:00,20.0,9.8,29.94,WNW,303,11.0,20.0,64,0.00,,---,0.00,VWS V13.01,2013-01-22 10:26:00,
2013-01-22 05:31:00,20.0,9.8,29.95,WSW,254,4.0,11.0,64,0.00,,---,0.00,VWS V13.01,2013-01-22 10:31:00,
2013-01-22 05:36:00,19.9,9.7,29.95,WNW,288,7.0,7.0,64,0.00,,---,0.00,VWS V13.01,2013-01-22 10:36:00,
2013-01-22 05:41:00,19.8,9.6,29.95,West,277,3.0,13.0,64,0.00,,---,0.00,VWS V13.01,2013-01-22 10:41:00,
2013-01-22 05:46:00,19.7,9.5,29.95,WNW,294,6.0,10.0,64,0.00,,---,0.00,VWS V13.01,2013-01-22 10:46:00,
2013-01-22 05:51:00,19.6,9.4,29.95,NNW,329,5.0,10.0,64,0.00,,---,0.00,VWS V13.01,2013-01-22 10:51:00,
2013-01-22 05:56:00,19.5,9.3,29.96,WNW,300,4.0,4.0,64,0.00,,---,0.00,VWS V13.01,2013-01-22 10:56:00,
2013-01-22 06:01:00,19.4,9.2,29.96,WNW,294,5.0,6.0,64,0.00,,---,0.00,VWS V13.01,2013-01-22 11:01:00,
2013-01-22 06:06:00,19.4,9.2,29.96,WNW,294,6.0,9.0,64,0.00,,---,0.00,VWS V13.01,2013-01-22 11:06:00,
2013-01-22 06:11:00,19.3,9.5,29.96,WNW,296,4.0,5.0,65,0.00,,---,0.00,VWS V13.01,2013-01-22 11:11:00,
2013-01-22 06:16:00,19.2,9.4,29.97,WNW,300,15.0,15.0,65,0.00,,---,0.00,VWS V13.01,2013-01-22 11:16:00,
2013-01-22 06:21:00,19.2,9.4,29.97,NW,325,5.0,10.0,65,0.00,,---,0.00,VWS V13.01,2013-01-22 11:21:00,
2013-01-22 06:26:00,19.2,9.0,29.98,West,277,3.0,4.0,64,0.00,,---,0.00,VWS V13.01,2013-01-22 11:26:00,
2013-01-22 06:32:00,19.3,9.1,29.98,WNW,296,7.0,15.0,64,0.00,,---,0.00,VWS V13.01,2013-01-22 11:32:00,
2013-01-22 06:37:00,19.2,9.0,29.98,WNW,285,11.0,13.0,64,0.00,,---,0.00,VWS V13.01,2013-01-22 11:37:00,
2013-01-22 06:42:00,19.2,9.0,29.99,NW,315,1.0,5.0,64,0.00,,---,0.00,VWS V13.01,2013-01-22 11:42:00,
2013-01-22 06:47:00,19.1,8.9,29.99,West,271,2.0,10.0,64,0.00,,---,0.00,VWS V13.01,2013-01-22 11:47:00,
2013-01-22 06:52:00,18.9,9.1,29.99,West,269,1.0,11.0,65,0.00,,---,0.00,VWS V13.01,2013-01-22 11:52:00,
2013-01-22 06:57:00,18.8,9.0,29.99,WNW,296,2.0,11.0,65,0.00,,---,0.00,VWS V13.01,2013-01-22 11:57:00,
2013-01-22 07:02:00,18.7,8.9,30.00,West,277,5.0,10.0,65,0.00,,---,0.00,VWS V13.01,2013-01-22 12:02:00,
2013-01-22 07:07:00,18.7,8.9,30.00,WNW,293,3.0,4.0,65,0.00,,---,0.00,VWS V13.01,2013-01-22 12:07:00,
2013-01-22 07:12:00,18.6,8.8,30.00,WNW,297,5.0,6.0,65,0.00,,---,0.00,VWS V13.01,2013-01-22 12:12:00,
2013-01-22 07:17:00,18.5,8.7,30.00,NW,307,0.0,6.0,65,0.00,,---,0.00,VWS V13.01,2013-01-22 12:17:00,
2013-01-22 07:22:00,18.5,8.7,30.00,NW,307,3.0,7.0,65,0.00,,---,0.00,VWS V13.01,2013-01-22 12:22:00,
2013-01-22 07:27:00,18.4,8.6,30.00,NW,317,6.0,6.0,65,0.00,,---,0.00,VWS V13.01,2013-01-22 12:27:00,
2013-01-22 07:32:00,18.4,8.6,30.00,West,267,3.0,7.0,65,0.00,,---,0.00,VWS V13.01,2013-01-22 12:32:00,
2013-01-22 07:37:00,18.4,8.3,30.01,WNW,302,5.0,5.0,64,0.00,,---,0.00,VWS V13.01,2013-01-22 12:37:00,
2013-01-22 07:42:00,18.5,8.4,30.01,WNW,300,5.0,9.0,64,0.00,,---,0.00,VWS V13.01,2013-01-22 12:42:00,
2013-01-22 07:47:00,18.5,8.4,30.01,West,268,16.0,16.0,64,0.00,,---,0.00,VWS V13.01,2013-01-22 12:47:00,
2013-01-22 07:52:00,18.6,8.5,30.01,NNW,328,12.0,13.0,64,0.00,,---,0.00,VWS V13.01,2013-01-22 12:52:00,
2013-01-22 07:57:00,18.7,8.6,30.01,WSW,256,2.0,2.0,64,0.00,,---,0.00,VWS V13.01,2013-01-22 12:57:00,
2013-01-22 08:02:00,18.7,8.6,30.02,WNW,288,10.0,12.0,64,0.00,,---,0.00,VWS V13.01,2013-01-22 13:02:00,
2013-01-22 08:07:00,18.8,8.3,30.02,NW,309,9.0,11.0,63,0.00,,---,0.00,VWS V13.01,2013-01-22 13:07:00,
2013-01-22 08:12:00,18.9,8.4,30.02,NE,55,4.0,5.0,63,0.00,,---,0.00,VWS V13.01,2013-01-22 13:12:00,
2013-01-22 08:17:00,19.0,8.5,30.02,WNW,296,3.0,7.0,63,0.00,,---,0.00,VWS V13.01,2013-01-22 13:17:00,
2013-01-22 08:22:00,19.0,8.1,30.03,WNW,290,10.0,18.0,62,0.00,,---,0.00,VWS V13.01,2013-01-22 13:22:00,
2013-01-22 08:27:00,19.2,8.0,30.03,NW,325,5.0,6.0,61,0.00,,---,0.00,VWS V13.01,2013-01-22 13:27:00,
2013-01-22 08:32:00,19.4,8.2,30.03,WNW,301,2.0,9.0,61,0.00,,---,0.00,VWS V13.01,2013-01-22 13:32:00,
2013-01-22 08:37:00,19.5,8.3,30.03,NNW,341,1.0,4.0,61,0.00,,---,0.00,VWS V13.01,2013-01-22 13:37:00,
2013-01-22 08:42:00,19.7,8.1,30.04,NNW,345,6.0,13.0,60,0.00,,---,0.00,VWS V13.01,2013-01-22 13:42:00,
2013-01-22 08:47:00,19.8,8.2,30.04,West,277,8.0,15.0,60,0.00,,---,0.00,VWS V13.01,2013-01-22 13:47:00,
2013-01-22 08:52:00,20.0,8.0,30.04,NW,309,0.0,9.0,59,0.00,,---,0.00,VWS V13.01,2013-01-22 13:52:00,
2013-01-22 08:57:00,20.1,8.1,30.04,NW,311,11.0,12.0,59,0.00,,---,0.00,VWS V13.01,2013-01-22 13:57:00,
2013-01-22 09:03:00,20.2,7.8,30.04,North,350,11.0,14.0,58,0.00,,---,0.00,VWS V13.01,2013-01-22 14:03:00,
2013-01-22 09:08:00,20.4,8.0,30.04,West,271,5.0,16.0,58,0.00,,---,0.00,VWS V13.01,2013-01-22 14:08:00,
2013-01-22 09:13:00,20.5,8.1,30.04,WSW,257,6.0,11.0,58,0.00,,---,0.00,VWS V13.01,2013-01-22 14:13:00,
2013-01-22 09:18:00,20.8,8.4,30.04,NW,311,1.0,11.0,58,0.00,,---,0.00,VWS V13.01,2013-01-22 14:18:00,
2013-01-22 09:23:00,20.9,8.1,30.05,NW,317,5.0,16.0,57,0.00,,---,0.00,VWS V13.01,2013-01-22 14:23:00,
2013-01-22 09:28:00,20.9,8.1,30.05,NW,320,11.0,14.0,57,0.00,,---,0.00,VWS V13.01,2013-01-22 14:28:00,
2013-01-22 09:33:00,20.8,8.0,30.05,West,273,12.0,12.0,57,0.00,,---,0.00,VWS V13.01,2013-01-22 14:33:00,
2013-01-22 09:38:00,20.9,8.1,30.05,WNW,302,4.0,10.0,57,0.00,,---,0.00,VWS V13.01,2013-01-22 14:38:00,
2013-01-22 09:43:00,21.1,8.3,30.05,WNW,298,14.0,14.0,57,0.00,,---,0.00,VWS V13.01,2013-01-22 14:43:00,
2013-01-22 09:48:00,21.1,7.9,30.06,SSW,198,5.0,7.0,56,0.00,,---,0.00,VWS V13.01,2013-01-22 14:48:00,
2013-01-22 09:53:00,21.2,8.0,30.06,WNW,296,13.0,19.0,56,0.00,,---,0.00,VWS V13.01,2013-01-22 14:53:00,
2013-01-22 09:58:00,21.1,7.5,30.07,West,269,7.0,15.0,55,0.00,,---,0.00,VWS V13.01,2013-01-22 14:58:00,
2013-01-22 10:03:00,21.0,7.8,30.07,West,273,11.0,15.0,56,0.00,,---,0.00,VWS V13.01,2013-01-22 15:03:00,
2013-01-22 10:08:00,21.0,7.8,30.07,WNW,286,4.0,6.0,56,0.00,,---,0.00,VWS V13.01,2013-01-22 15:08:00,
2013-01-22 10:13:00,21.1,7.9,30.07,WNW,289,13.0,15.0,56,0.00,,---,0.00,VWS V13.01,2013-01-22 15:13:00,
2013-01-22 10:18:00,21.3,8.1,30.07,NNW,333,9.0,9.0,56,0.00,,---,0.00,VWS V13.01,2013-01-22 15:18:00,
2013-01-22 10:23:00,21.5,8.2,30.07,WNW,301,3.0,9.0,56,0.00,,---,0.00,VWS V13.01,2013-01-22 15:23:00,
2013-01-22 10:28:00,21.7,8.0,30.07,NNW,338,4.0,13.0,55,0.00,,---,0.00,VWS V13.01,2013-01-22 15:28:00,
2013-01-22 10:33:00,22.0,8.7,30.06,NW,321,11.0,17.0,56,0.00,,---,0.00,VWS V13.01,2013-01-22 15:33:00,
2013-01-22 10:38:00,22.2,8.5,30.06,NW,315,2.0,18.0,55,0.00,,---,0.00,VWS V13.01,2013-01-22 15:38:00,
2013-01-22 10:43:00,22.4,8.3,30.07,West,263,6.0,10.0,54,0.00,,---,0.00,VWS V13.01,2013-01-22 15:43:00,
2013-01-22 10:48:00,22.2,7.3,30.07,WNW,298,4.0,13.0,52,0.00,,---,0.00,VWS V13.01,2013-01-22 15:48:00,
2013-01-22 10:53:00,22.0,7.5,30.06,WNW,292,14.0,14.0,53,0.00,,---,0.00,VWS V13.01,2013-01-22 15:53:00,
2013-01-22 10:58:00,22.1,8.0,30.06,WNW,286,7.0,9.0,54,0.00,,---,0.00,VWS V13.01,2013-01-22 15:58:00,
2013-01-22 11:03:00,22.5,8.4,30.06,North,351,11.0,19.0,54,0.00,,---,0.00,VWS V13.01,2013-01-22 16:03:00,
2013-01-22 11:08:00,22.7,8.1,30.06,WNW,290,9.0,11.0,53,0.00,,---,0.00,VWS V13.01,2013-01-22 16:08:00,
2013-01-22 11:13:00,22.9,8.3,30.06,WNW,290,10.0,16.0,53,0.00,,---,0.00,VWS V13.01,2013-01-22 16:13:00,
2013-01-22 11:18:00,23.0,8.0,30.05,WNW,294,11.0,14.0,52,0.00,,---,0.00,VWS V13.01,2013-01-22 16:18:00,
2013-01-22 11:23:00,22.9,7.9,30.05,WNW,283,9.0,12.0,52,0.00,,---,0.00,VWS V13.01,2013-01-22 16:23:00,
2013-01-22 11:28:00,23.2,8.6,30.06,NW,318,1.0,5.0,53,0.00,,---,0.00,VWS V13.01,2013-01-22 16:28:00,
2013-01-22 11:33:00,23.8,9.2,30.06,WSW,241,7.0,15.0,53,0.00,,---,0.00,VWS V13.01,2013-01-22 16:33:00,
2013-01-22 11:38:00,24.2,9.6,30.05,West,277,4.0,6.0,53,0.00,,---,0.00,VWS V13.01,2013-01-22 16:38:00,
2013-01-22 11:43:00,24.4,8.4,30.05,NNW,345,12.0,16.0,50,0.00,,---,0.00,VWS V13.01,2013-01-22 16:43:00,
2013-01-22 11:48:00,24.3,8.4,30.05,WSW,242,4.0,11.0,50,0.00,,---,0.00,VWS V13.01,2013-01-22 16:48:00,
2013-01-22 11:53:00,24.3,8.4,30.04,WNW,301,5.0,20.0,50,0.00,,---,0.00,VWS V13.01,2013-01-22 16:53:00,
2013-01-22 11:58:00,24.2,7.8,30.05,NW,325,8.0,16.0,49,0.01,,---,0.01,VWS V13.01,2013-01-22 16:58:00,
2013-01-22 12:03:00,23.8,7.0,30.04,NW,313,6.0,18.0,48,0.01,,---,0.01,VWS V13.01,2013-01-22 17:03:00,
2013-01-22 12:08:00,23.1,6.3,30.05,NW,304,16.0,18.0,48,0.01,,---,0.01,VWS V13.01,2013-01-22 17:08:00,
2013-01-22 12:13:00,22.9,7.1,30.04,WNW,300,7.0,13.0,50,0.01,,---,0.01,VWS V13.01,2013-01-22 17:13:00,
2013-01-22 12:18:00,22.8,6.1,30.04,WNW,298,5.0,16.0,48,0.01,,---,0.01,VWS V13.01,2013-01-22 17:18:00,
2013-01-22 12:23:00,22.5,5.8,30.04,NW,318,7.0,12.0,48,0.01,,---,0.01,VWS V13.01,2013-01-22 17:23:00,
2013-01-22 12:28:00,22.0,6.2,30.04,North,349,3.0,12.0,50,0.01,,---,0.01,VWS V13.01,2013-01-22 17:28:00,
2013-01-22 12:33:00,22.0,7.1,30.04,West,277,3.0,13.0,52,0.01,,---,0.01,VWS V13.01,2013-01-22 17:33:00,
2013-01-22 12:38:00,22.5,7.1,30.04,NNW,338,7.0,11.0,51,0.01,,---,0.01,VWS V13.01,2013-01-22 17:38:00,
2013-01-22 12:43:00,23.2,7.3,30.03,West,280,5.0,15.0,50,0.01,,---,0.01,VWS V13.01,2013-01-22 17:43:00,
2013-01-22 12:48:00,23.6,6.3,30.03,West,268,0.0,9.0,47,0.01,,---,0.01,VWS V13.01,2013-01-22 17:48:00,
2013-01-22 12:53:00,23.4,6.6,30.03,NW,307,11.0,11.0,48,0.01,,---,0.01,VWS V13.01,2013-01-22 17:53:00,
2013-01-22 12:58:00,22.7,6.0,30.03,WNW,296,2.0,4.0,48,0.00,,---,0.01,VWS V13.01,2013-01-22 17:58:00,
2013-01-22 13:03:00,22.5,6.7,30.03,WNW,282,10.0,20.0,50,0.00,,---,0.01,VWS V13.01,2013-01-22 18:03:00,
2013-01-22 13:08:00,22.5,7.1,30.03,NW,319,11.0,15.0,51,0.00,,---,0.01,VWS V13.01,2013-01-22 18:08:00,
2013-01-22 13:13:00,22.7,6.0,30.03,NW,310,8.0,8.0,48,0.00,,---,0.01,VWS V13.01,2013-01-22 18:13:00,
2013-01-22 13:18:00,22.5,4.9,30.04,WNW,284,3.0,3.0,46,0.00,,---,0.01,VWS V13.01,2013-01-22 18:18:00,
2013-01-22 13:23:00,22.0,4.4,30.03,WNW,290,6.0,14.0,46,0.00,,---,0.01,VWS V13.01,2013-01-22 18:23:00,
2013-01-22 13:28:00,21.9,4.8,30.03,NNW,336,12.0,12.0,47,0.00,,---,0.01,VWS V13.01,2013-01-22 18:28:00,
2013-01-22 13:33:00,22.1,5.4,30.04,WNW,300,11.0,13.0,48,0.00,,---,0.01,VWS V13.01,2013-01-22 18:33:00,
2013-01-22 13:38:00,22.4,5.7,30.03,NW,308,15.0,19.0,48,0.00,,---,0.01,VWS V13.01,2013-01-22 18:38:00,
2013-01-22 13:43:00,22.8,6.1,30.03,NW,306,0.0,2.0,48,0.00,,---,0.01,VWS V13.01,2013-01-22 18:43:00,
2013-01-22 13:48:00,23.2,6.0,30.03,WNW,288,10.0,11.0,47,0.00,,---,0.01,VWS V13.01,2013-01-22 18:48:00,
2013-01-22 13:53:00,23.1,5.9,30.03,NW,312,9.0,11.0,47,0.00,,---,0.01,VWS V13.01,2013-01-22 18:53:00,
2013-01-22 13:58:00,22.9,5.2,30.03,NNW,327,9.0,9.0,46,0.00,,---,0.01,VWS V13.01,2013-01-22 18:58:00,
2013-01-22 14:03:00,22.9,5.7,30.03,West,260,6.0,13.0,47,0.00,,---,0.01,VWS V13.01,2013-01-22 19:03:00,
2013-01-22 14:08:00,23.1,5.4,30.03,West,262,11.0,13.0,46,0.00,,---,0.01,VWS V13.01,2013-01-22 19:08:00,
2013-01-22 14:13:00,22.9,4.8,30.04,WNW,302,13.0,15.0,45,0.00,,---,0.01,VWS V13.01,2013-01-22 19:13:00,
2013-01-22 14:18:00,22.5,4.4,30.04,NNE,21,6.0,18.0,45,0.00,,---,0.01,VWS V13.01,2013-01-22 19:18:00,
2013-01-22 14:23:00,22.4,5.2,30.04,NW,323,5.0,6.0,47,0.00,,---,0.01,VWS V13.01,2013-01-22 19:23:00,
2013-01-22 14:28:00,22.8,5.6,30.04,NW,308,5.0,16.0,47,0.00,,---,0.01,VWS V13.01,2013-01-22 19:28:00,
2013-01-22 14:33:00,22.9,4.8,30.04,West,278,3.0,8.0,45,0.00,,---,0.01,VWS V13.01,2013-01-22 19:33:00,
2013-01-22 14:38:00,22.7,4.6,30.04,NW,313,5.0,19.0,45,0.00,,---,0.01,VWS V13.01,2013-01-22 19:38:00,
2013-01-22 14:43:00,22.6,4.0,30.04,West,260,4.0,15.0,44,0.00,,---,0.01,VWS V13.01,2013-01-22 19:43:00,
2013-01-22 14:48:00,22.5,3.9,30.04,NW,306,13.0,18.0,44,0.00,,---,0.01,VWS V13.01,2013-01-22 19:48:00,
2013-01-22 14:53:00,22.6,4.5,30.04,WNW,296,3.0,6.0,45,0.00,,---,0.01,VWS V13.01,2013-01-22 19:53:00,
2013-01-22 14:58:00,22.6,3.5,30.04,NW,315,15.0,15.0,43,0.00,,---,0.01,VWS V13.01,2013-01-22 19:58:00,
2013-01-22 15:03:00,22.4,3.8,30.04,NW,307,7.0,16.0,44,0.00,,---,0.01,VWS V13.01,2013-01-22 20:03:00,
2013-01-22 15:08:00,22.4,3.8,30.05,West,281,8.0,15.0,44,0.00,,---,0.01,VWS V13.01,2013-01-22 20:08:00,
2013-01-22 15:13:00,22.4,3.3,30.05,WNW,282,3.0,7.0,43,0.00,,---,0.01,VWS V13.01,2013-01-22 20:13:00,
2013-01-22 15:18:00,22.5,3.4,30.05,WNW,295,12.0,14.0,43,0.00,,---,0.01,VWS V13.01,2013-01-22 20:18:00,
2013-01-22 15:23:00,22.5,3.4,30.05,NW,304,9.0,12.0,43,0.00,,---,0.01,VWS V13.01,2013-01-22 20:23:00,
2013-01-22 15:28:00,22.4,3.3,30.05,West,260,9.0,9.0,43,0.00,,---,0.01,VWS V13.01,2013-01-22 20:28:00,
2013-01-22 15:33:00,22.4,3.3,30.05,NW,308,6.0,16.0,43,0.00,,---,0.01,VWS V13.01,2013-01-22 20:33:00,
2013-01-22 15:38:00,22.3,3.2,30.06,West,265,5.0,19.0,43,0.00,,---,0.01,VWS V13.01,2013-01-22 20:38:00,
2013-01-22 15:43:00,22.2,3.1,30.06,North,360,3.0,12.0,43,0.00,,---,0.01,VWS V13.01,2013-01-22 20:43:00,
2013-01-22 15:48:00,22.0,3.4,30.06,WNW,302,13.0,13.0,44,0.00,,---,0.01,VWS V13.01,2013-01-22 20:48:00,
2013-01-22 15:53:00,21.9,3.3,30.07,NW,313,5.0,13.0,44,0.00,,---,0.01,VWS V13.01,2013-01-22 20:53:00,
2013-01-22 15:58:00,21.7,3.2,30.07,NW,313,12.0,18.0,44,0.00,,---,0.01,VWS V13.01,2013-01-22 20:58:00,
2013-01-22 16:03:00,21.6,3.1,30.07,NW,323,11.0,15.0,44,0.00,,---,0.01,VWS V13.01,2013-01-22 21:03:00,
2013-01-22 16:08:00,21.4,2.9,30.07,NNW,348,13.0,13.0,44,0.00,,---,0.01,VWS V13.01,2013-01-22 21:08:00,
2013-01-22 16:13:00,21.1,2.6,30.08,WNW,298,9.0,15.0,44,0.00,,---,0.01,VWS V13.01,2013-01-22 21:13:00,
2013-01-22 16:18:00,21.0,2.5,30.08,West,275,4.0,8.0,44,0.00,,---,0.01,VWS V13.01,2013-01-22 21:18:00,
2013-01-22 16:23:00,20.9,2.9,30.07,NNW,328,8.0,14.0,45,0.00,,---,0.01,VWS V13.01,2013-01-22 21:23:00,
2013-01-22 16:28:00,20.8,2.8,30.08,West,280,18.0,18.0,45,0.00,,---,0.01,VWS V13.01,2013-01-22 21:28:00,
2013-01-22 16:31:00,20.7,2.7,30.08,WNW,288,5.0,11.0,45,0.00,,---,0.01,VWS V13.01,2013-01-22 21:31:00,
2013-01-22 16:36:00,20.6,2.6,30.08,WNW,300,2.0,12.0,45,0.00,,---,0.01,VWS V13.01,2013-01-22 21:36:00,
2013-01-22 16:41:00,20.3,2.4,30.08,West,273,7.0,7.0,45,0.00,,---,0.01,VWS V13.01,2013-01-22 21:41:00,
2013-01-22 16:46:00,20.2,2.7,30.08,WNW,292,11.0,18.0,46,0.00,,---,0.01,VWS V13.01,2013-01-22 21:46:00,
2013-01-22 16:51:00,20.1,2.7,30.09,NW,313,3.0,19.0,46,0.00,,---,0.01,VWS V13.01,2013-01-22 21:51:00,
2013-01-22 16:56:00,19.9,2.5,30.09,NNW,338,5.0,10.0,46,0.00,,---,0.01,VWS V13.01,2013-01-22 21:56:00,
2013-01-22 17:01:00,19.8,2.4,30.10,NW,323,15.0,17.0,46,0.00,,---,0.01,VWS V13.01,2013-01-22 22:01:00,
2013-01-22 17:06:00,19.7,2.3,30.10,WNW,286,15.0,16.0,46,0.00,,---,0.01,VWS V13.01,2013-01-22 22:06:00,
2013-01-22 17:11:00,19.6,2.2,30.10,WNW,287,12.0,19.0,46,0.00,,---,0.01,VWS V13.01,2013-01-22 22:11:00,
2013-01-22 17:16:00,19.5,2.1,30.10,WNW,297,17.0,17.0,46,0.00,,---,0.01,VWS V13.01,2013-01-22 22:16:00,
2013-01-22 17:21:00,19.4,2.0,30.11,WNW,303,4.0,13.0,46,0.00,,---,0.01,VWS V13.01,2013-01-22 22:21:00,
2013-01-22 17:26:00,19.3,2.4,30.12,West,274,7.0,14.0,47,0.00,,---,0.01,VWS V13.01,2013-01-22 22:26:00,
2013-01-22 17:31:00,19.1,2.7,30.12,NW,318,9.0,9.0,48,0.00,,---,0.01,VWS V13.01,2013-01-22 22:31:00,
2013-01-22 17:36:00,19.0,2.6,30.12,NW,304,1.0,10.0,48,0.00,,---,0.01,VWS V13.01,2013-01-22 22:36:00,
2013-01-22 17:41:00,18.9,2.5,30.12,NW,319,4.0,13.0,48,0.00,,---,0.01,VWS V13.01,2013-01-22 22:41:00,
2013-01-22 17:46:00,18.9,2.5,30.12,NW,304,4.0,10.0,48,0.00,,---,0.01,VWS V13.01,2013-01-22 22:46:00,
2013-01-22 17:51:00,18.8,2.4,30.12,WSW,241,7.0,12.0,48,0.00,,---,0.01,VWS V13.01,2013-01-22 22:51:00,
2013-01-22 17:56:00,18.8,2.4,30.12,WNW,300,0.0,5.0,48,0.00,,---,0.01,VWS V13.01,2013-01-22 22:56:00,
2013-01-22 18:01:00,18.7,2.3,30.13,NW,309,11.0,16.0,48,0.00,,---,0.01,VWS V13.01,2013-01-22 23:01:00,
2013-01-22 18:06:00,18.7,2.3,30.13,NNW,328,5.0,11.0,48,0.00,,---,0.01,VWS V13.01,2013-01-22 23:06:00,
2013-01-22 18:11:00,18.7,2.3,30.13,West,277,7.0,14.0,48,0.00,,---,0.01,VWS V13.01,2013-01-22 23:11:00,
2013-01-22 18:16:00,18.7,1.8,30.13,NNW,334,9.0,11.0,47,0.00,,---,0.01,VWS V13.01,2013-01-22 23:16:00,
2013-01-22 18:21:00,18.7,1.8,30.14,NW,315,10.0,19.0,47,0.00,,---,0.01,VWS V13.01,2013-01-22 23:21:00,
2013-01-22 18:26:00,18.6,1.7,30.14,NNW,331,9.0,14.0,47,0.00,,---,0.01,VWS V13.01,2013-01-22 23:26:00,
2013-01-22 18:31:00,18.6,2.2,30.14,NW,312,11.0,12.0,48,0.00,,---,0.01,VWS V13.01,2013-01-22 23:31:00,
2013-01-22 18:36:00,18.5,1.6,30.14,WSW,246,1.0,13.0,47,0.00,,---,0.01,VWS V13.01,2013-01-22 23:36:00,
2013-01-22 18:41:00,18.4,1.5,30.15,North,351,6.0,12.0,47,0.00,,---,0.01,VWS V13.01,2013-01-22 23:41:00,
2013-01-22 18:46:00,18.4,2.4,30.15,West,269,4.0,4.0,49,0.00,,---,0.01,VWS V13.01,2013-01-22 23:46:00,
2013-01-22 18:51:00,18.2,1.8,30.15,WNW,284,9.0,11.0,48,0.00,,---,0.01,VWS V13.01,2013-01-22 23:51:00,
2013-01-22 18:56:00,18.2,2.3,30.16,NW,322,1.0,7.0,49,0.00,,---,0.01,VWS V13.01,2013-01-22 23:56:00,
2013-01-22 19:00:00,18.1,2.2,30.16,NNW,329,7.0,10.0,49,0.00,,---,0.01,VWS V13.01,2013-01-23 00:00:00,
2013-01-22 19:05:00,18.0,2.1,30.16,NW,321,3.0,9.0,49,0.00,,---,0.01,VWS V13.01,2013-01-23 00:05:00,
2013-01-22 19:10:00,18.0,2.5,30.16,WNW,284,3.0,6.0,50,0.00,,---,0.01,VWS V13.01,2013-01-23 00:10:00,
2013-01-22 19:15:00,17.9,2.4,30.16,WNW,300,3.0,10.0,50,0.00,,---,0.01,VWS V13.01,2013-01-23 00:15:00,
2013-01-22 19:20:00,17.8,2.3,30.17,WNW,285,7.0,10.0,50,0.00,,---,0.01,VWS V13.01,2013-01-23 00:20:00,
2013-01-22 19:25:00,17.8,1.9,30.17,NW,305,7.0,7.0,49,0.00,,---,0.01,VWS V13.01,2013-01-23 00:25:00,
2013-01-22 19:30:00,17.8,1.9,30.17,WNW,288,2.0,5.0,49,0.00,,---,0.01,VWS V13.01,2013-01-23 00:30:00,
2013-01-22 19:35:00,17.8,1.9,30.17,WNW,293,3.0,5.0,49,0.00,,---,0.01,VWS V13.01,2013-01-23 00:35:00,
2013-01-22 19:40:00,17.7,1.8,30.17,WNW,295,2.0,8.0,49,0.00,,---,0.01,VWS V13.01,2013-01-23 00:40:00,
2013-01-22 19:45:00,17.7,1.8,30.17,WNW,292,4.0,10.0,49,0.00,,---,0.01,VWS V13.01,2013-01-23 00:45:00,
2013-01-22 19:50:00,17.6,2.1,30.18,NW,326,4.0,10.0,50,0.00,,---,0.01,VWS V13.01,2013-01-23 00:50:00,
2013-01-22 19:55:00,17.6,1.7,30.17,WNW,300,3.0,6.0,49,0.00,,---,0.01,VWS V13.01,2013-01-23 00:55:00,
2013-01-22 20:00:00,17.5,2.0,30.18,NW,308,2.0,6.0,50,0.00,,---,0.01,VWS V13.01,2013-01-23 01:00:00,
2013-01-22 20:05:00,17.5,2.5,30.17,WNW,297,3.0,10.0,51,0.00,,---,0.01,VWS V13.01,2013-01-23 01:05:00,
2013-01-22 20:10:00,17.3,2.3,30.18,WNW,288,5.0,14.0,51,0.00,,---,0.01,VWS V13.01,2013-01-23 01:10:00,
2013-01-22 20:15:00,17.3,2.3,30.18,WNW,290,5.0,6.0,51,0.00,,---,0.01,VWS V13.01,2013-01-23 01:15:00,
2013-01-22 20:20:00,17.2,2.2,30.18,West,281,2.0,4.0,51,0.00,,---,0.01,VWS V13.01,2013-01-23 01:20:00,
2013-01-22 20:25:00,17.2,2.2,30.17,NW,319,5.0,7.0,51,0.00,,---,0.01,VWS V13.01,2013-01-23 01:25:00,
2013-01-22 20:30:00,17.2,2.2,30.18,WNW,290,5.0,14.0,51,0.00,,---,0.01,VWS V13.01,2013-01-23 01:30:00,
2013-01-22 20:35:00,17.1,2.1,30.18,NW,305,5.0,10.0,51,0.00,,---,0.01,VWS V13.01,2013-01-23 01:35:00,
2013-01-22 20:40:00,17.1,2.1,30.17,WNW,283,4.0,7.0,51,0.00,,---,0.01,VWS V13.01,2013-01-23 01:40:00,
2013-01-22 20:45:00,17.1,2.1,30.18,WNW,293,2.0,6.0,51,0.00,,---,0.01,VWS V13.01,2013-01-23 01:45:00,
2013-01-22 20:50:00,17.0,2.0,30.18,NNW,329,5.0,7.0,51,0.00,,---,0.01,VWS V13.01,2013-01-23 01:50:00,
2013-01-22 20:55:00,17.0,1.6,30.18,WNW,286,2.0,11.0,50,0.00,,---,0.01,VWS V13.01,2013-01-23 01:55:00,
2013-01-22 21:00:00,17.0,1.6,30.18,WNW,292,3.0,7.0,50,0.00,,---,0.01,VWS V13.01,2013-01-23 02:00:00,
2013-01-22 21:05:00,17.0,2.0,30.18,WNW,295,4.0,5.0,51,0.00,,---,0.01,VWS V13.01,2013-01-23 02:05:00,
2013-01-22 21:10:00,16.9,1.9,30.18,West,279,3.0,4.0,51,0.00,,---,0.01,VWS V13.01,2013-01-23 02:10:00,
2013-01-22 21:15:00,16.8,1.8,30.18,WNW,288,5.0,11.0,51,0.00,,---,0.01,VWS V13.01,2013-01-23 02:15:00,
2013-01-22 21:20:00,16.8,1.8,30.18,NW,304,6.0,6.0,51,0.00,,---,0.01,VWS V13.01,2013-01-23 02:20:00,
2013-01-22 21:25:00,16.8,1.8,30.18,NW,316,4.0,12.0,51,0.00,,---,0.01,VWS V13.01,2013-01-23 02:25:00,
2013-01-22 21:30:00,16.8,1.8,30.18,NW,321,10.0,10.0,51,0.00,,---,0.01,VWS V13.01,2013-01-23 02:30:00,
2013-01-22 21:35:00,16.7,1.7,30.19,NW,306,13.0,13.0,51,0.00,,---,0.01,VWS V13.01,2013-01-23 02:35:00,
2013-01-22 21:40:00,16.7,1.3,30.19,NNW,331,5.0,11.0,50,0.00,,---,0.01,VWS V13.01,2013-01-23 02:40:00,
2013-01-22 21:45:00,16.7,0.9,30.19,West,259,10.0,10.0,49,0.00,,---,0.01,VWS V13.01,2013-01-23 02:45:00,
2013-01-22 21:50:00,16.8,1.4,30.19,NW,304,3.0,9.0,50,0.00,,---,0.01,VWS V13.01,2013-01-23 02:50:00,
2013-01-22 21:55:00,16.7,0.9,30.19,NW,305,5.0,9.0,49,0.00,,---,0.01,VWS V13.01,2013-01-23 02:55:00,
2013-01-22 22:00:00,16.7,1.3,30.20,West,269,4.0,11.0,50,0.00,,---,0.01,VWS V13.01,2013-01-23 03:00:00,
2013-01-22 22:05:00,16.6,1.2,30.20,NW,308,5.0,14.0,50,0.00,,---,0.01,VWS V13.01,2013-01-23 03:05:00,
2013-01-22 22:10:00,16.5,1.1,30.20,NW,315,5.0,11.0,50,0.00,,---,0.01,VWS V13.01,2013-01-23 03:10:00,
2013-01-22 22:15:00,16.5,1.5,30.20,WNW,293,1.0,4.0,51,0.00,,---,0.01,VWS V13.01,2013-01-23 03:15:00,
2013-01-22 22:20:00,16.3,1.4,30.21,WNW,296,4.0,14.0,51,0.00,,---,0.01,VWS V13.01,2013-01-23 03:20:00,
2013-01-22 22:25:00,16.2,1.7,30.21,NW,313,2.0,12.0,52,0.00,,---,0.01,VWS V13.01,2013-01-23 03:25:00,
2013-01-22 22:30:00,16.1,1.6,30.21,WNW,291,1.0,6.0,52,0.00,,---,0.01,VWS V13.01,2013-01-23 03:30:00,
2013-01-22 22:35:00,16.1,1.6,30.21,NW,309,3.0,5.0,52,0.00,,---,0.01,VWS V13.01,2013-01-23 03:35:00,
2013-01-22 22:40:00,15.9,1.4,30.21,West,271,5.0,12.0,52,0.00,,---,0.01,VWS V13.01,2013-01-23 03:40:00,
2013-01-22 22:45:00,15.8,1.3,30.21,WNW,282,2.0,6.0,52,0.00,,---,0.01,VWS V13.01,2013-01-23 03:45:00,
2013-01-22 22:50:00,15.8,1.7,30.21,WNW,302,5.0,14.0,53,0.00,,---,0.01,VWS V13.01,2013-01-23 03:50:00,
2013-01-22 22:55:00,15.8,1.3,30.22,WNW,299,11.0,14.0,52,0.00,,---,0.01,VWS V13.01,2013-01-23 03:55:00,
2013-01-22 23:00:00,15.8,0.5,30.22,West,279,6.0,6.0,50,0.00,,---,0.01,VWS V13.01,2013-01-23 04:00:00,
2013-01-22 23:05:00,15.8,0.5,30.22,NW,313,9.0,11.0,50,0.00,,---,0.01,VWS V13.01,2013-01-23 04:05:00,
2013-01-22 23:10:00,15.8,0.9,30.22,NW,326,6.0,6.0,51,0.00,,---,0.01,VWS V13.01,2013-01-23 04:10:00,
2013-01-22 23:15:00,15.8,0.9,30.21,NW,311,5.0,9.0,51,0.00,,---,0.01,VWS V13.01,2013-01-23 04:15:00,
2013-01-22 23:20:00,15.7,1.2,30.22,WNW,290,5.0,11.0,52,0.00,,---,0.01,VWS V13.01,2013-01-23 04:20:00,
2013-01-22 23:25:00,15.6,1.1,30.22,WNW,300,7.0,12.0,52,0.00,,---,0.01,VWS V13.01,2013-01-23 04:25:00,
2013-01-22 23:30:00,15.6,1.5,30.22,NW,306,1.0,3.0,53,0.00,,---,0.01,VWS V13.01,2013-01-23 04:30:00,
2013-01-22 23:35:00,15.5,1.4,30.22,NNW,338,9.0,12.0,53,0.00,,---,0.01,VWS V13.01,2013-01-23 04:35:00,
2013-01-22 23:40:00,15.4,1.7,30.21,WNW,297,3.0,6.0,54,0.00,,---,0.01,VWS V13.01,2013-01-23 04:40:00,
2013-01-22 23:45:00,15.3,1.2,30.21,NW,309,6.0,11.0,53,0.00,,---,0.01,VWS V13.01,2013-01-23 04:45:00,
2013-01-22 23:50:00,15.3,1.2,30.21,NW,312,4.0,12.0,53,0.00,,---,0.01,VWS V13.01,2013-01-23 04:50:00,
2013-01-22 23:55:00,15.2,1.1,30.21,NW,319,1.0,3.0,53,0.00,,---,0.01,VWS V13.01,2013-01-23 04:55:00,